Wharton, TX

10:17 PM CST on November 11, 2019 (GMT -0600)
Wharton Regional

Weather History for KARM - September, 2019

Change the Weather History Date:

Saturday, September 21, 2019

  Actual Average (WUND) Record (WUND)
Temperature  
Mean Temperature 80 °F -  
Max Temperature 89 °F - - (-1)
Min Temperature 73 °F - - (-1)
Cooling Degree Days 16    
Growing Degree Days 30 (Base 50)    
Moisture  
Dew Point 72 °F    
Average Humidity 77    
Maximum Humidity 94    
Minimum Humidity 53    
Precipitation  
Precipitation 0.03 in - - ()
Sea Level Pressure  
Sea Level Pressure 30.03 in    
Wind  
Wind Speed 5 mph ()    
Max Wind Speed 17 mph    
Max Gust Speed 26 mph    
Visibility 9.4 miles    
Events Rain    
Averages and records for this station are not official NWS values.
T = Trace of Precipitation, MM = Missing Value Source: Averaged Metar Reports

Daily Weather History Graph

Daily Weather History Graph

Search for Another Location

Airport or City:

Astronomy

Sep. 21, 2019 Rise Set
Actual Time 7:12 AM CDT 7:22 PM CDT
Civil Twilight 6:48 AM CDT 7:46 PM CDT
Nautical Twilight 6:20 AM CDT 8:13 PM CDT
Astronomical Twilight 5:53 AM CDT 8:41 PM CDT
Moon No Moon Rise 1:50 PM CDT (9/21)
Length of Visible Light 12h 57m
Length of Day
12h 10m
Waning Gibbous, 54% of the Moon is Illuminated
Sep 21
Waning Gibbous
Sep 21
Last Quarter
Sep 28
New
Oct 5
First Quarter
Oct 13
Full

Hourly Weather History & Observations

Time (CDT) Temp. Heat Index Dew Point Humidity Pressure Visibility Wind Dir Wind Speed Gust Speed Precip Events Conditions
12:15 AM 76.5 °F - 73.4 °F 90% 30.05 in 7.0 mi East 3.5 mph - N/A   Clear
12:35 AM 76.3 °F - 73.4 °F 91% 30.05 in 7.0 mi East 3.5 mph - N/A   Clear
12:55 AM 76.1 °F - 73.4 °F 91% 30.05 in 7.0 mi East 3.5 mph - N/A   Clear
1:15 AM 76.1 °F - 73.4 °F 91% 30.04 in 7.0 mi East 3.5 mph - N/A   Scattered Clouds
1:35 AM 75.7 °F - 73.4 °F 92% 30.04 in 7.0 mi East 3.5 mph - N/A   Clear
1:55 AM 75.6 °F - 73.4 °F 93% 30.03 in 5.0 mi East 3.5 mph - N/A   Clear
2:35 AM 75.6 °F - 73.4 °F 93% 30.03 in 5.0 mi East 3.5 mph - N/A   Clear
2:55 AM 75.4 °F - 73.4 °F 94% 30.03 in 5.0 mi East 3.5 mph - N/A   Clear
3:15 AM 75.2 °F - 73.4 °F 94% 30.02 in 7.0 mi East 4.6 mph - N/A   Clear
3:35 AM 75.2 °F - 73.4 °F 94% 30.02 in 10.0 mi East 5.8 mph - N/A   Clear
3:55 AM 75.2 °F - 73.0 °F 93% 30.01 in 10.0 mi East 5.8 mph - N/A   Clear
4:15 AM 75.2 °F - 72.9 °F 92% 30.01 in 10.0 mi ESE 5.8 mph - N/A   Clear
4:35 AM 75.2 °F - 72.7 °F 92% 30.01 in 10.0 mi ESE 4.6 mph - N/A   Clear
4:55 AM 75.2 °F - 72.5 °F 91% 30.02 in 10.0 mi ESE 4.6 mph - N/A   Clear
5:15 AM 75.2 °F - 72.0 °F 90% 30.01 in 10.0 mi ESE 4.6 mph - N/A   Clear
5:35 AM 74.8 °F - 71.6 °F 90% 30.02 in 10.0 mi East 4.6 mph - N/A   Clear
5:55 AM 74.7 °F - 71.6 °F 90% 30.03 in 10.0 mi East 3.5 mph - N/A   Clear
6:15 AM 74.3 °F - 71.2 °F 90% 30.03 in 10.0 mi East 4.6 mph - N/A   Clear
6:35 AM 74.3 °F - 71.2 °F 90% 30.03 in 10.0 mi Calm Calm - N/A   Clear
6:55 AM 73.6 °F - 70.9 °F 91% 30.03 in 10.0 mi East 3.5 mph - N/A   Clear
7:15 AM 73.6 °F - 70.9 °F 91% 30.04 in 10.0 mi Calm Calm - N/A   Clear
7:35 AM 73.9 °F - 71.6 °F 92% 30.05 in 7.0 mi East 3.5 mph - N/A   Clear
7:55 AM 74.7 °F - 72.1 °F 92% 30.05 in 7.0 mi East 3.5 mph - N/A   Clear
8:15 AM 76.3 °F - 73.0 °F 90% 30.06 in 10.0 mi Calm Calm - N/A   Clear
8:35 AM 78.1 °F - 73.2 °F 85% 30.06 in 10.0 mi East 3.5 mph - N/A   Clear
8:55 AM 79.7 °F - 73.2 °F 80% 30.06 in 10.0 mi East 4.6 mph - N/A   Scattered Clouds
9:15 AM 81.1 °F 86.4 °F 73.8 °F 78% 30.07 in 10.0 mi ESE 5.8 mph - N/A   Scattered Clouds
9:35 AM 82.2 °F 88.0 °F 73.4 °F 75% 30.08 in 10.0 mi ESE 10.4 mph - N/A   Clear
9:55 AM 83.1 °F 89.2 °F 73.2 °F 72% 30.08 in 10.0 mi ESE 8.1 mph - N/A   Clear
10:15 AM 84.4 °F 91.3 °F 73.6 °F 70% 30.08 in 10.0 mi ESE 9.2 mph - N/A   Scattered Clouds
10:35 AM 85.5 °F 92.2 °F 73.0 °F 66% 30.08 in 10.0 mi ESE 8.1 mph - N/A   Scattered Clouds
10:55 AM 86.0 °F 93.0 °F 72.9 °F 65% 30.08 in 10.0 mi ESE 8.1 mph - N/A   Mostly Cloudy
11:15 AM 86.7 °F 93.3 °F 72.1 °F 62% 30.08 in 10.0 mi SE 10.4 mph - N/A   Mostly Cloudy
11:35 AM 82.0 °F 86.3 °F 71.1 °F 69% 30.09 in 7.0 mi SSE 17.3 mph 26.5 mph N/A   Mostly Cloudy
11:55 AM 79.7 °F - 73.0 °F 80% 30.08 in 7.0 mi East 4.6 mph - 0.03 in Rain Heavy Rain
12:35 PM 85.6 °F 93.0 °F 73.8 °F 67% 30.07 in 10.0 mi SE 11.5 mph 16.1 mph N/A   Scattered Clouds
12:55 PM 86.9 °F 92.5 °F 71.1 °F 59% 30.06 in 10.0 mi ESE 10.4 mph 18.4 mph N/A   Scattered Clouds
1:15 PM 88.3 °F 94.5 °F 71.2 °F 57% 30.05 in 10.0 mi SE 10.4 mph - N/A   Scattered Clouds
1:35 PM 88.7 °F 94.3 °F 70.7 °F 55% 30.05 in 10.0 mi ESE 9.2 mph - N/A   Mostly Cloudy
1:55 PM 88.9 °F 94.2 °F 70.5 °F 54% 30.04 in 10.0 mi SE 10.4 mph 17.3 mph N/A   Mostly Cloudy
2:10 PM 87.4 °F 93.1 °F 71.1 °F 58% 30.04 in 10.0 mi ESE 12.7 mph - N/A   Mostly Cloudy
2:35 PM 87.1 °F 92.0 °F 70.0 °F 57% 30.03 in 10.0 mi SE 11.5 mph 17.3 mph N/A   Mostly Cloudy
2:55 PM 86.7 °F 90.6 °F 68.9 °F 55% 30.02 in 10.0 mi SE 11.5 mph - N/A   Scattered Clouds
3:15 PM 86.2 °F 89.7 °F 68.5 °F 55% 30.02 in 10.0 mi SE 9.2 mph - N/A   Clear
3:35 PM 88.9 °F 93.8 °F 69.6 °F 53% 30.01 in 10.0 mi SE 13.8 mph 19.6 mph N/A   Scattered Clouds
3:55 PM 86.2 °F 91.1 °F 70.2 °F 59% 30.01 in 10.0 mi SE 12.7 mph - N/A   Scattered Clouds
4:15 PM 86.4 °F 92.6 °F 71.8 °F 62% 30.01 in 10.0 mi SE 11.5 mph - N/A   Scattered Clouds
4:35 PM 87.8 °F 93.8 °F 71.2 °F 58% 30.00 in 10.0 mi ESE 9.2 mph 16.1 mph N/A   Clear
4:50 PM 87.6 °F 92.7 °F 70.0 °F 56% 30.00 in 10.0 mi SE 9.2 mph - N/A   Scattered Clouds
5:15 PM 86.0 °F 90.7 °F 70.0 °F 59% 30.00 in 10.0 mi SE 11.5 mph - N/A   Mostly Cloudy
5:35 PM 87.1 °F 92.0 °F 70.2 °F 57% 29.99 in 10.0 mi SE 12.7 mph - N/A   Mostly Cloudy
5:55 PM 86.0 °F 90.1 °F 69.1 °F 57% 30.00 in 10.0 mi SE 10.4 mph 16.1 mph N/A   Scattered Clouds
6:15 PM 85.1 °F 89.1 °F 69.4 °F 59% 30.00 in 10.0 mi SE 10.4 mph - N/A   Clear
6:35 PM 83.8 °F 87.0 °F 68.4 °F 59% 29.99 in 10.0 mi ESE 11.5 mph - N/A   Clear
6:55 PM 82.4 °F 85.4 °F 68.2 °F 62% 30.00 in 10.0 mi SE 8.1 mph - N/A   Clear
7:10 PM 81.5 °F 84.4 °F 68.2 °F 64% 30.00 in 10.0 mi SE 8.1 mph - N/A   Clear
7:35 PM 79.5 °F - 68.9 °F 70% 30.00 in 10.0 mi SE 8.1 mph - N/A   Clear
7:55 PM 78.8 °F - 69.8 °F 74% 30.00 in 10.0 mi SE 6.9 mph - N/A   Clear
8:15 PM 77.9 °F - 70.7 °F 78% 30.01 in 10.0 mi ESE 4.6 mph - N/A   Clear
8:35 PM 77.5 °F - 70.7 °F 79% 30.02 in 10.0 mi ESE 4.6 mph - N/A   Clear
8:55 PM 77.2 °F - 70.9 °F 81% 30.02 in 10.0 mi East 3.5 mph - N/A   Clear
9:15 PM 76.5 °F - 70.9 °F 83% 30.02 in 10.0 mi East 4.6 mph - N/A   Clear
9:35 PM 76.5 °F - 71.4 °F 84% 30.03 in 10.0 mi East 5.8 mph - N/A   Clear
9:55 PM 76.3 °F - 71.2 °F 84% 30.03 in 10.0 mi East 5.8 mph - N/A   Clear
10:15 PM 75.7 °F - 71.2 °F 86% 30.03 in 10.0 mi East 5.8 mph - N/A   Clear
10:35 PM 75.7 °F - 71.6 °F 87% 30.04 in 10.0 mi Calm Calm - N/A   Clear
10:55 PM 75.2 °F - 71.6 °F 89% 30.03 in 10.0 mi East 3.5 mph - N/A   Clear
11:15 PM 75.2 °F - 71.6 °F 89% 30.03 in 10.0 mi Calm Calm - N/A   Clear
11:35 PM 75.2 °F - 71.8 °F 89% 30.03 in 10.0 mi ENE 3.5 mph - N/A   Clear
11:55 PM 74.8 °F - 71.6 °F 90% 30.04 in 10.0 mi East 3.5 mph - N/A   Clear